Theta_e
353 350 353 355 351 349 357 356 350 356 355 348 348 350 352 348 351 352 341 343 346 348 347 347 348 350 351 347 347 349 349 350 349 350 350 352 352 352 351 352 352 352 352 352 348 347 350 349 350
354 354 356 359 349 352 355 351 352 348 348 346 346 347 347 350 344 343 343 344 346 348 348 346 346 349 351 349 349 349 350 350 350 351 351 352 349 351 352 353 350 352 352 352 351 349 348 349 346
353 359 359 355 349 352 353 351 347 344 343 344 345 343 345 348 343 342 343 344 346 348 347 348 349 349 351 350 349 349 351 351 352 352 351 352 352 351 351 351 352 352 349 350 352 351 349 350 343
357 355 358 349 353 349 349 346 343 345 342 342 343 346 343 342 342 343 344 345 346 347 348 350 351 351 351 352 353 353 352 351 351 352 351 350 353 353 352 350 350 351 350 351 352 351 349 350 344
355 358 353 353 352 347 346 344 343 344 343 342 342 346 346 341 342 343 346 346 346 346 348 349 351 352 353 352 353 352 352 352 352 351 352 352 352 353 353 351 350 352 352 351 352 351 351 351 345
362 359 352 356 353 348 347 343 344 342 341 343 343 344 344 342 340 341 343 345 344 345 346 350 351 353 354 352 353 351 349 352 352 351 352 352 351 351 351 349 350 351 352 352 348 345 347 346 345
357 359 352 353 354 351 349 344 346 340 341 343 341 341 339 340 342 342 344 345 345 346 348 351 349 353 353 353 352 350 351 352 352 352 352 350 350 351 351 351 349 351 353 352 349 345 344 343 342
360 359 353 353 356 353 349 350 344 339 341 339 336 339 340 337 343 345 346 347 347 346 348 348 348 349 351 354 353 353 353 351 352 352 351 348 349 353 352 351 348 353 352 353 350 341 344 344 342
358 357 353 350 355 353 351 351 341 337 340 339 337 335 334 338 342 344 345 347 349 346 347 348 347 349 350 350 351 353 353 353 351 352 348 345 348 345 348 348 350 348 353 352 350 343 343 343 341
359 351 352 349 347 350 351 351 344 341 339 339 338 335 336 338 339 342 344 348 350 350 346 347 346 349 348 350 350 351 352 350 346 347 345 344 342 344 344 345 346 349 348 349 349 341 342 342 341
351 356 352 353 351 350 351 351 345 340 339 337 339 336 336 338 339 342 344 347 350 350 348 346 348 347 344 349 346 351 347 346 347 345 342 342 341 344 344 342 344 346 351 350 349 344 343 342 340
348 350 352 351 350 350 352 349 347 343 342 336 337 335 336 337 339 342 344 346 348 350 349 346 347 348 346 346 343 346 344 346 344 343 341 342 343 344 346 345 346 345 343 344 342 337 339 340 345
349 349 351 349 347 349 350 351 350 345 342 338 336 335 336 338 340 342 344 345 346 348 348 346 343 345 345 341 341 342 339 341 342 342 343 342 344 346 347 346 347 347 342 341 340 337 336 337 339
347 350 347 346 347 348 346 350 349 347 341 340 336 336 337 338 339 341 343 344 346 347 346 341 338 340 343 342 340 338 337 339 343 346 347 348 348 347 347 347 347 347 340 339 341 341 342 337 335
349 349 346 346 351 351 345 348 350 346 342 340 337 338 339 340 341 342 343 344 344 346 346 344 338 340 341 343 342 343 341 343 346 347 348 348 348 348 347 347 347 346 344 344 344 345 344 344 344
349 347 345 344 350 350 347 343 350 344 343 342 340 340 341 340 340 344 344 344 344 345 345 345 344 344 342 346 348 349 349 346 349 349 349 348 348 347 348 347 347 346 346 345 346 345 345 345 345
342 346 345 345 348 348 347 349 351 344 344 343 342 341 342 341 340 341 344 345 345 345 345 345 346 347 347 347 348 349 349 349 348 349 348 348 348 346 348 346 347 346 345 345 345 346 344 344 346
336 344 344 345 345 349 350 349 348 345 345 344 342 341 341 341 340 341 341 344 345 345 345 345 346 346 347 348 348 348 349 349 348 348 349 349 348 347 349 347 345 346 346 346 347 344 345 348 348
335 343 343 340 344 349 351 347 350 347 344 345 344 342 341 340 339 340 341 342 344 345 345 345 345 346 347 347 347 349 349 348 349 348 349 348 345 348 349 348 345 344 346 348 348 347 350 349 351
334 337 338 339 343 345 346 349 345 346 346 343 343 342 342 340 338 339 340 341 343 343 345 345 345 345 345 346 346 349 348 349 350 350 348 348 347 348 349 348 348 347 349 348 349 350 350 350 348
335 337 337 339 341 342 342 341 343 346 348 344 342 341 340 340 339 338 338 340 341 342 342 344 345 345 345 345 346 349 350 349 349 349 348 346 348 349 350 349 349 348 346 348 350 351 350 347 348
322 328 334 340 341 342 338 341 337 346 349 348 344 341 340 340 339 338 338 338 339 340 342 342 343 343 345 345 347 349 348 348 348 348 346 347 349 350 350 351 351 351 351 351 350 351 349 347 347
319 330 336 338 338 339 339 337 333 343 348 349 345 342 341 340 340 339 338 337 337 338 340 342 343 343 344 345 347 349 347 347 348 349 347 344 343 350 351 352 351 350 350 350 348 349 348 348 346
319 318 315 316 324 334 333 329 320 326 341 345 346 342 341 340 340 339 338 337 337 338 341 342 343 344 344 345 347 348 347 347 349 348 349 348 346 350 351 352 352 351 350 350 348 349 348 348 346
314 313 315 318 319 323 319 321 319 321 325 332 340 344 341 341 340 340 338 337 338 340 341 342 343 344 345 346 347 348 347 347 349 347 349 349 348 349 352 351 352 350 349 349 349 348 348 346 344
319 312 314 318 316 316 313 317 321 326 325 337 340 343 341 341 340 340 339 338 340 341 342 343 344 345 346 346 346 348 347 348 349 348 349 349 348 349 348 350 350 350 349 348 348 348 347 344 338
319 315 311 310 309 313 312 316 322 322 325 333 341 341 343 342 340 339 339 339 341 342 342 343 345 345 346 346 347 347 348 348 349 349 349 349 348 349 349 348 351 350 350 349 349 347 345 340 335
321 315 315 310 316 318 317 319 322 323 327 326 331 341 341 340 340 338 339 339 342 344 344 344 345 345 345 347 347 347 347 348 348 350 350 348 349 350 348 346 350 351 350 349 348 345 341 336 332
320 320 312 310 308 313 314 324 321 328 330 329 335 339 338 339 339 338 339 340 342 345 346 346 346 346 346 347 347 348 348 347 348 350 351 348 350 351 348 344 346 350 350 348 346 342 338 335 330
321 321 317 322 325 310 315 317 335 342 344 340 350 350 352 350 338 339 339 340 344 346 347 348 347 347 347 347 348 348 348 349 348 351 352 350 351 352 347 346 345 350 351 348 346 342 337 333 330
Wind_Speed
13 9 6 2 2 3 2 3 2 4 7 0 8 2 5 4 2 2 11 12 20 21 22 21 20 20 20 21 20 19 20 18 17 16 16 14 14 11 9 9 9 8 8 7 8 10 11 13 13
12 8 3 1 4 3 2 2 4 2 5 9 7 6 4 3 4 6 8 17 21 22 22 22 20 20 18 20 19 19 17 17 14 14 15 13 12 9 8 7 7 6 7 9 10 12 13 12 13
11 5 1 2 2 2 2 3 4 2 6 6 6 7 2 2 4 12 15 19 20 21 21 20 21 20 16 17 17 17 16 15 13 13 13 12 12 9 7 6 6 5 7 10 11 10 12 11 12
5 1 0 4 3 2 3 5 6 6 1 4 10 8 5 4 10 7 22 19 18 20 20 18 18 18 18 15 13 15 13 13 11 10 10 10 10 9 7 7 6 6 7 9 10 11 11 9 10
0 1 3 3 4 2 4 5 5 4 4 4 3 4 6 5 13 24 18 18 18 18 19 18 16 16 16 14 12 13 14 11 10 9 8 7 8 7 6 7 6 6 8 9 10 11 10 9 8
1 1 4 2 3 2 4 6 6 2 3 3 5 7 6 16 30 25 19 19 17 18 18 17 16 15 14 13 11 12 10 11 11 10 8 8 7 6 5 6 7 6 7 7 8 10 8 7 7
2 1 3 3 1 1 4 7 5 5 5 1 10 5 4 13 25 31 26 22 20 19 18 17 17 15 13 13 12 11 11 10 11 11 9 7 6 6 5 6 6 6 7 7 6 8 7 5 4
1 2 3 2 3 4 7 6 8 5 4 10 2 5 6 8 26 24 24 21 19 18 18 18 17 14 13 12 11 10 11 10 10 10 9 7 6 6 7 6 6 7 6 6 6 6 6 4 3
1 3 1 2 5 3 8 4 3 7 10 2 4 6 9 28 27 21 18 16 16 18 19 18 18 16 14 13 11 10 10 11 10 8 8 6 6 6 7 7 7 6 6 5 5 6 5 4 4
2 3 2 2 5 5 8 5 7 5 7 3 5 8 25 25 24 19 14 13 17 19 19 18 18 16 15 14 13 11 12 11 10 10 9 8 7 6 7 7 7 7 7 7 5 6 4 3 3
2 1 3 4 4 8 9 4 3 11 4 8 13 11 18 22 19 18 17 21 24 22 20 21 20 18 16 15 13 13 12 11 11 9 10 9 8 6 6 7 6 7 7 7 6 6 6 5 3
3 2 3 0 2 6 9 8 6 9 6 10 10 17 15 16 16 21 20 20 22 23 23 22 22 20 18 16 15 13 13 12 11 10 10 9 8 7 9 6 5 5 8 7 6 5 5 6 5
2 3 2 5 3 5 7 8 7 12 1 10 14 15 18 13 18 20 22 23 23 23 22 23 23 23 21 18 16 15 14 12 11 10 9 10 10 9 7 8 7 5 8 10 8 7 6 6 8
3 1 3 5 4 3 6 4 9 6 10 13 16 17 17 16 18 18 19 20 25 25 25 25 25 24 22 21 19 16 14 13 12 12 10 10 9 7 6 5 5 6 8 9 8 7 6 9 11
2 3 2 3 3 2 4 3 6 2 13 15 17 16 14 14 20 21 24 24 30 29 25 25 26 25 24 24 21 17 15 14 14 12 12 12 9 6 5 5 7 5 9 8 7 8 7 11 12
3 4 5 2 2 1 3 5 4 7 15 13 15 14 14 13 19 23 25 28 28 29 29 28 27 27 26 25 23 19 17 16 13 13 14 13 10 7 6 8 9 7 10 8 7 6 6 5 7
6 3 1 6 7 3 5 6 7 10 12 14 14 14 14 12 13 21 27 30 31 33 32 32 30 29 29 27 25 22 19 17 13 12 10 8 8 6 5 7 8 8 7 7 8 7 7 7 8
5 4 2 6 3 4 4 9 5 12 14 16 16 14 13 14 18 26 26 28 26 29 30 32 33 29 28 28 26 23 21 19 16 14 11 8 5 5 3 6 9 11 9 9 9 8 6 7 7
1 2 7 9 6 3 8 6 9 12 11 12 13 14 14 16 20 26 26 25 23 25 30 32 32 32 28 27 24 22 21 18 18 15 13 10 7 5 5 6 8 11 11 9 8 7 6 6 7
3 4 7 10 6 4 2 12 4 12 16 18 18 17 17 14 11 18 23 24 26 30 34 34 33 34 32 30 28 23 23 20 18 17 14 11 9 8 7 7 8 10 10 10 8 7 5 4 4
4 5 5 8 2 4 3 8 4 3 7 12 17 20 18 20 17 15 18 26 27 30 37 38 37 36 34 32 29 22 16 16 17 17 17 13 11 8 9 7 8 9 10 9 9 8 7 5 4
4 6 9 2 2 4 3 6 7 2 8 9 17 19 19 19 17 14 16 22 27 34 36 37 37 37 35 34 32 31 25 21 21 20 16 17 11 11 10 10 11 11 10 10 9 8 9 7 7
10 2 0 3 2 4 1 1 8 4 6 10 12 19 19 20 19 18 16 28 29 29 35 37 37 36 35 35 35 33 28 22 17 18 17 17 14 11 10 12 13 14 12 10 9 10 10 9 5
1 5 6 5 3 1 4 5 6 4 6 6 5 15 19 18 18 16 22 22 27 27 30 31 35 38 36 35 37 36 33 28 20 17 17 16 16 15 15 14 14 13 12 11 9 9 10 8 5
6 6 3 3 4 6 3 5 10 5 9 8 12 13 17 18 16 14 14 17 22 27 28 31 34 34 37 37 37 37 35 31 24 20 18 19 19 18 19 18 16 14 13 11 11 11 10 8 7
1 6 6 6 4 5 4 6 5 4 9 8 5 8 12 17 14 15 15 21 24 28 31 31 34 36 37 38 39 37 35 32 27 22 20 22 23 21 20 20 18 16 14 13 13 13 12 10 8
2 1 3 7 3 3 4 7 9 6 9 10 6 4 10 14 15 17 16 23 26 29 34 36 35 36 39 41 40 37 37 34 31 27 24 23 22 22 22 22 21 18 17 16 15 14 13 11 10
5 2 2 4 4 1 5 5 5 14 20 12 8 3 2 5 7 8 12 20 27 29 33 39 38 40 44 41 40 40 39 37 33 31 29 26 24 23 22 24 23 22 21 19 16 15 14 13 10
6 4 6 5 3 5 1 5 3 7 9 10 7 5 1 6 8 7 8 13 17 20 27 30 36 33 32 36 38 37 38 38 36 34 31 30 27 25 24 25 25 25 24 21 18 16 15 15 11
2 2 4 5 2 1 2 6 1 2 7 7 7 8 7 5 4 9 9 16 20 20 21 25 29 33 37 37 37 39 38 37 37 37 35 32 30 28 27 25 26 28 26 23 21 19 18 17 14
Wind_Direction
174 184 201 249 74 72 40 27 51 104 140 237 130 133 136 51 31 166 152 140 144 140 137 136 134 132 132 128 129 127 127 128 133 135 131 129 124 126 129 124 113 111 113 109 102 107 119 116 118
167 176 221 114 76 58 353 65 110 98 120 98 60 123 98 86 85 106 133 143 143 141 141 139 143 139 138 134 136 130 130 134 141 140 139 138 131 129 128 122 120 119 117 114 105 110 115 119 124
166 202 101 73 96 73 75 105 129 89 146 130 134 63 79 86 99 146 150 147 147 145 147 145 145 143 140 137 140 136 141 144 152 148 142 141 139 139 131 113 112 125 124 120 115 111 119 119 125
170 311 243 74 39 94 107 128 127 136 106 54 114 77 79 144 138 138 144 148 151 153 151 148 148 147 142 143 143 141 146 152 160 157 150 144 141 142 135 114 113 124 122 116 119 115 113 119 127
162 144 50 45 15 48 81 111 145 138 132 108 117 103 91 74 134 140 146 155 161 154 156 156 157 151 146 150 150 148 151 165 167 163 163 152 140 151 141 129 129 134 121 122 125 130 126 125 127
57 249 60 24 4 46 96 135 143 95 71 137 86 99 121 136 143 157 162 166 166 160 164 160 162 157 158 153 166 155 154 169 167 164 172 164 154 166 159 148 141 144 128 126 127 134 142 139 141
169 75 144 124 201 279 159 150 152 137 117 125 133 95 109 148 165 167 172 169 171 168 164 166 172 171 167 166 175 161 168 171 165 163 171 173 169 174 167 156 155 148 139 137 134 136 138 154 161
182 110 87 142 196 273 148 153 143 126 57 125 132 128 167 176 166 165 169 171 173 168 168 173 176 176 172 176 177 177 175 175 179 176 172 184 175 181 175 172 160 156 149 145 139 132 138 151 180
267 56 60 204 150 221 132 139 109 94 127 192 159 141 150 155 162 154 159 169 175 178 179 182 183 181 184 189 186 186 181 184 177 176 181 169 174 202 184 180 172 167 157 162 153 146 145 153 150
222 84 313 317 188 171 156 139 133 108 145 229 167 84 129 148 156 158 165 173 186 189 190 194 193 191 195 198 192 194 196 186 184 182 174 184 183 187 195 182 179 169 172 176 166 160 155 180 171
321 127 196 350 65 127 151 118 133 120 189 212 175 151 148 156 164 169 177 188 195 196 194 201 204 202 204 201 201 203 204 192 197 189 189 191 198 184 186 194 181 188 183 182 175 171 185 203 206
356 317 278 355 32 128 145 149 169 173 197 212 155 158 160 168 174 178 184 195 197 200 204 205 208 209 207 207 209 206 210 205 205 199 200 194 200 203 214 206 210 200 204 191 192 190 196 206 243
137 304 46 304 137 122 151 167 177 205 157 147 141 160 168 178 181 187 192 196 202 204 209 209 209 211 210 209 214 213 212 210 209 208 211 211 214 229 222 209 217 214 195 196 205 216 231 244 255
41 292 274 285 254 167 136 147 156 208 142 145 152 171 171 175 190 185 192 194 201 209 209 206 209 211 211 213 215 216 217 218 221 218 222 230 237 237 269 219 214 217 199 205 218 228 238 230 251
341 345 355 225 307 295 117 92 230 174 152 155 165 171 172 175 177 196 198 202 208 209 208 207 207 212 213 213 215 218 222 224 228 229 233 241 253 259 255 226 225 217 204 208 222 220 249 230 250
36 16 21 297 323 303 79 253 240 153 146 164 169 173 175 181 187 199 203 213 210 211 210 209 207 212 215 217 218 220 225 228 236 246 241 241 243 257 246 240 224 218 203 216 212 232 224 227 249
12 280 156 309 205 259 186 260 191 156 157 163 175 179 187 181 201 204 209 212 213 213 215 214 213 217 219 222 226 229 233 230 235 239 235 215 214 251 248 228 216 203 203 211 216 226 242 255 260
270 310 215 242 245 205 260 266 167 175 167 180 175 180 190 196 206 209 212 210 214 216 217 219 218 222 222 226 229 234 237 234 228 237 230 212 239 216 227 214 206 211 215 211 222 227 238 260 268
322 223 272 276 207 227 233 267 200 179 187 187 178 190 191 205 207 207 217 218 212 216 218 220 217 220 216 215 216 221 222 218 222 225 228 209 212 208 202 210 201 200 211 211 227 232 238 262 274
190 260 255 283 202 192 303 254 217 186 210 190 182 191 203 208 194 209 213 214 209 212 219 219 220 219 216 217 216 212 214 218 227 224 220 217 220 202 195 203 199 197 202 209 215 221 231 231 238
226 208 238 212 28 223 9 307 281 212 209 191 195 197 198 200 201 203 205 208 209 207 214 217 219 219 216 216 210 206 217 229 225 224 225 221 208 203 197 199 204 200 200 214 230 240 222 219 203
282 199 250 245 57 239 75 283 314 326 251 210 195 195 200 201 207 207 205 206 208 215 217 217 219 218 215 215 210 208 213 210 222 222 217 211 209 207 206 209 210 209 214 224 222 218 221 223 202
236 123 102 177 141 20 214 37 267 346 295 252 206 198 199 200 197 197 201 209 209 211 217 218 219 217 215 213 214 210 216 224 225 221 217 211 215 208 204 213 218 221 220 216 220 219 224 225 211
3 94 57 52 79 63 243 142 287 261 251 289 199 201 194 198 201 202 203 199 204 203 207 210 212 215 215 213 213 214 216 219 222 220 215 211 203 208 206 210 214 221 216 216 215 214 219 224 237
73 59 348 356 9 215 36 72 246 260 287 251 266 203 192 196 196 192 186 184 190 189 194 201 206 206 212 214 214 217 220 221 221 220 217 208 201 207 206 209 211 212 210 212 212 211 210 219 233
106 153 156 185 201 258 154 232 246 226 320 328 287 180 182 190 194 198 192 189 188 188 189 194 199 203 210 214 217 220 220 222 222 222 221 216 213 215 212 211 209 212 206 208 206 208 214 219 219
314 28 179 101 12 56 297 297 312 317 359 354 357 130 178 187 192 195 195 190 186 185 189 195 198 203 210 215 217 218 219 220 222 224 222 219 221 223 218 213 212 214 209 208 210 212 216 213 210
84 168 21 0 129 171 307 295 253 334 322 330 321 256 161 216 225 209 193 192 192 189 189 194 205 206 211 215 217 219 219 220 224 224 222 221 222 221 218 212 214 214 209 206 211 209 210 209 209
357 14 52 116 92 151 168 266 223 289 305 322 351 27 38 216 204 202 203 193 197 186 186 190 202 206 209 211 214 216 221 223 224 226 225 222 221 219 215 215 215 212 209 208 209 210 207 206 209
346 59 115 108 247 99 144 270 255 357 340 346 354 8 358 353 222 186 175 162 156 169 188 194 204 206 213 214 213 217 222 223 226 227 229 227 223 218 215 213 211 211 211 212 212 209 207 205 206